Location: Newark
(41.8083°N, 72.2500°W)
Time: 18:25:11
(UTC+00:00)

deb Explorer IX - Pass Details

Date: 07 December 2021
Orbit: 544 x 1082 km, 38.8° (Epoch: 16 January)

Event Time Altitude Azimuth Distance (km) Brightness Sun altitude
Rises 15:36:08 0° 262° (W) 3,104 ? 23.8°
Reaches altitude 10° 15:38:42 10° 259° (W) 2,099 ? 23.9°
Maximum altitude 15:43:26 60° 180° (S) 700 ? 24.2°
Drops below altitude 10° 15:47:32 11° 101° (E) 1,837 ? 24.4°
Sets 15:49:48 0° 97° (E) 2,728 ? 24.4°
